FW5258 Weather Reports


Display with metric or nautical units.
time (UTC)temp
F
wind
direction
speed
MPH
gust
MPH
rain 1hr
in
rain 24hr
in
rain mn
in
humidity
%
barometer
mb
20260507230333 67 217 6.0 12.0 0.00 0.00 0.00 47 1008.5
20260507225834 67 211 6.0 12.0 0.00 0.00 0.00 48 1008.7
20260507225333 67 252 7.0 13.0 0.00 0.00 0.00 49 1008.7
20260507225052 66 224 8.0 16.0 0.00 0.00 0.00 49 1008.8
20260507224331 66 233 9.0 16.0 0.00 0.00 0.00 48 1008.8
20260507224051 66 227 9.0 17.0 0.00 0.00 0.00 47 1008.9
20260507223331 67 251 9.0 17.0 0.00 0.00 0.00 46 1009.0
20260507223049 67 259 8.0 16.0 0.00 0.00 0.00 48 1009.0
20260507222329 67 233 7.0 12.0 0.00 0.00 0.00 48 1009.0
20260507221828 67 244 6.0 13.0 0.00 0.00 0.00 45 1009.0
20260507221328 67 194 7.0 13.0 0.00 0.00 0.00 45 1009.0
20260507220829 67 248 8.0 15.0 0.00 0.00 0.00 47 1009.0
20260507220329 66 221 8.0 15.0 0.00 0.00 0.00 48 1009.1
20260507215827 66 227 9.0 19.0 0.00 0.00 0.00 47 1009.1
20260507215324 66 254 9.0 19.0 0.00 0.00 0.00 47 1009.1
20260507214830 66 220 9.0 18.0 0.00 0.00 0.00 49 1009.1
20260507214323 66 245 9.0 18.0 0.00 0.00 0.00 46 1009.1
20260507213818 66 238 9.0 16.0 0.00 0.00 0.00 45 1009.1
20260507213311 66 229 11.0 21.0 0.00 0.00 0.00 46 1009.1
20260507212805 66 250 12.0 21.0 0.00 0.00 0.00 45 1009.1
20260507212300 67 250 11.0 19.0 0.00 0.00 0.00 46 1009.2
20260507212026 66 254 10.0 17.0 0.00 0.00 0.00 48 1009.2
20260507211247 66 212 9.0 17.0 0.00 0.00 0.00 47 1009.1
20260507210754 66 217 11.0 21.0 0.00 0.00 0.00 46 1009.2
20260507210500 66 225 10.0 21.0 0.00 0.00 0.00 44 1009.2
20260507205729 66 252 8.0 15.0 0.00 0.00 0.00 47 1009.3
20260507205442 66 227 10.0 18.0 0.00 0.00 0.00 46 1009.3
20260507204718 67 249 10.0 18.0 0.00 0.00 0.00 45 1009.3
20260507204211 67 234 8.0 15.0 0.00 0.00 0.00 47 1009.3
20260507203705 67 240 10.0 19.0 0.00 0.00 0.00 44 1009.5
20260507203159 67 209 12.0 19.0 0.00 0.00 0.00 43 1009.4
20260507202654 68 233 13.0 19.0 0.00 0.00 0.00 44 1009.5
20260507202147 68 244 14.0 21.0 0.00 0.00 0.00 43 1009.5
20260507201909 67 226 12.0 21.0 0.00 0.00 0.00 42 1009.6
20260507201406 66 239 9.0 21.0 0.00 0.00 0.00 45 1009.5
20260507200642 66 169 8.0 16.0 0.00 0.00 0.00 44 1009.7
20260507200123 66 201 9.0 15.0 0.00 0.00 0.00 45 1009.9
20260507195618 67 161 10.0 15.0 0.00 0.00 0.00 46 1010.0
20260507195111 67 231 10.0 17.0 0.00 0.00 0.00 45 1010.2
20260507194605 67 238 10.0 17.0 0.00 0.00 0.00 47 1010.2
20260507194059 67 261 11.0 19.0 0.00 0.00 0.00 45 1010.2
20260507193553 67 248 10.0 19.0 0.00 0.00 0.00 44 1010.4
20260507193047 66 254 11.0 22.0 0.00 0.00 0.00 47 1010.4
20260507192542 66 245 11.0 22.0 0.00 0.00 0.00 47 1010.4
20260507192036 65 261 10.0 19.0 0.00 0.00 0.00 46 1010.5
20260507191529 65 269 9.0 19.0 0.00 0.00 0.00 46 1010.5
20260507191023 65 221 10.0 16.0 0.00 0.00 0.00 46 1010.6
20260507190741 66 214 11.0 19.0 0.00 0.00 0.00 45 1010.7
20260507190014 66 242 11.0 19.0 0.00 0.00 0.00 45 1010.6
20260507185732 66 261 11.0 20.0 0.00 0.00 0.00 48 1010.7
20260507185154 65 215 11.0 19.0 0.00 0.00 0.00 47 1010.7
20260507185047 66 245 11.0 20.0 0.00 0.00 0.00 46 1010.7
20260507183947 65 262 10.0 18.0 0.00 0.00 0.00 47 1010.7
20260507183442 65 275 12.0 20.0 0.00 0.00 0.00 48 1010.8
20260507182935 66 225 12.0 20.0 0.00 0.00 0.00 45 1010.9
20260507182429 66 257 13.0 21.0 0.00 0.00 0.00 49 1011.0
20260507182142 66 217 13.0 21.0 0.00 0.00 0.00 47 1011.0
20260507181638 65 248 13.0 20.0 0.00 0.00 0.00 48 1011.0
20260507180911 65 246 13.0 21.0 0.00 0.00 0.00 48 1011.1
20260507180418 64 252 13.0 21.0 0.00 0.00 0.00 49 1011.1
20260507175900 65 242 13.0 25.0 0.00 0.00 0.00 49 1011.3
20260507175354 65 250 13.0 25.0 0.00 0.00 0.00 48 1011.2
20260507174848 65 264 11.0 19.0 0.00 0.00 0.00 49 1011.3
20260507174342 65 243 12.0 19.0 0.00 0.00 0.00 51 1011.4
20260507174058 64 257 14.0 23.0 0.00 0.00 0.00 49 1011.4
20260507173329 64 234 13.0 23.0 0.00 0.00 0.00 49 1011.4
20260507172823 63 260 13.0 23.0 0.00 0.00 0.00 50 1011.5
20260507172318 63 242 15.0 24.0 0.00 0.00 0.00 49 1011.6
20260507171811 63 233 15.0 24.0 0.00 0.00 0.00 49 1011.6
20260507171306 63 273 14.0 21.0 0.00 0.00 0.00 50 1011.8
20260507171021 63 238 15.0 21.0 0.00 0.00 0.00 49 1011.8
20260507170249 63 250 14.0 20.0 0.00 0.00 0.00 51 1011.8
20260507165751 62 261 14.0 20.0 0.00 0.00 0.00 51 1011.8
20260507165250 62 276 14.0 21.0 0.00 0.00 0.00 51 1012.0
20260507164751 62 242 15.0 24.0 0.00 0.00 0.00 50 1012.1
20260507164249 62 253 14.0 24.0 0.00 0.00 0.00 52 1012.0
20260507163749 62 259 14.0 22.0 0.00 0.00 0.00 52 1012.2
20260507163250 62 225 14.0 22.0 0.00 0.00 0.00 54 1012.3
20260507162750 62 212 14.0 21.0 0.00 0.00 0.00 54 1012.2
20260507162250 61 223 13.0 21.0 0.00 0.00 0.00 54 1012.3
20260507161749 60 277 14.0 21.0 0.00 0.00 0.00 55 1012.3
20260507161250 61 266 15.0 23.0 0.00 0.00 0.00 54 1012.4
20260507160750 61 254 15.0 23.0 0.00 0.00 0.00 54 1012.4
20260507160249 60 259 15.0 22.0 0.00 0.00 0.00 55 1012.5
20260507155749 60 242 13.0 20.0 0.00 0.00 0.00 56 1012.5
20260507155247 60 243 13.0 26.0 0.00 0.00 0.00 59 1012.5
20260507154745 60 232 14.0 26.0 0.00 0.00 0.00 56 1012.6
20260507154245 59 225 13.0 19.0 0.00 0.00 0.00 59 1012.5
20260507153745 59 221 13.0 19.0 0.00 0.00 0.00 60 1012.6
20260507153246 59 252 12.0 19.0 0.00 0.00 0.00 60 1012.5
20260507152745 59 205 12.0 19.0 0.00 0.00 0.00 60 1012.7
20260507152246 58 253 13.0 20.0 0.00 0.00 0.00 61 1012.8
20260507151746 58 240 14.0 20.0 0.00 0.00 0.00 60 1012.9
20260507151247 58 250 13.0 18.0 0.00 0.00 0.00 63 1012.7
20260507150745 58 272 12.0 18.0 0.00 0.00 0.00 62 1012.9
20260507150246 58 222 11.0 17.0 0.00 0.00 0.00 63 1012.9
20260507145746 57 269 11.0 16.0 0.00 0.00 0.00 63 1012.8
20260507145245 57 265 10.0 16.0 0.00 0.00 0.00 64 1012.9
20260507144746 57 266 8.0 13.0 0.00 0.00 0.00 66 1012.9
20260507144245 56 254 9.0 16.0 0.00 0.00 0.00 66 1012.9
20260507144234 56 257 9.0 16.0 0.00 0.00 0.00 67 1012.8
20260507143245 55 227 9.0 14.0 0.00 0.00 0.00 66 1012.9
20260507142745 55 244 9.0 14.0 0.00 0.00 0.00 66 1013.0
20260507142238 54 246 10.0 15.0 0.00 0.00 0.00 68 1013.1
20260507141732 54 231 9.0 15.0 0.00 0.00 0.00 68 1013.2
20260507141232 54 239 9.0 15.0 0.00 0.00 0.00 68 1013.2
20260507140732 53 244 9.0 17.0 0.00 0.00 0.00 69 1013.2
20260507140232 53 219 10.0 18.0 0.00 0.00 0.00 69 1013.3
20260507135734 53 267 10.0 18.0 0.00 0.00 0.00 69 1013.2
20260507135500 52 217 9.0 15.0 0.00 0.00 0.00 69 1013.3
20260507134735 52 259 9.0 13.0 0.00 0.00 0.00 70 1013.3
20260507134232 51 235 9.0 15.0 0.00 0.00 0.00 70 1013.4
20260507133732 51 186 8.0 15.0 0.00 0.00 0.00 70 1013.3
20260507133231 51 232 8.0 13.0 0.00 0.00 0.00 70 1013.4
20260507132734 50 226 8.0 13.0 0.00 0.00 0.00 70 1013.5
20260507132231 50 217 8.0 13.0 0.00 0.00 0.00 71 1013.5
20260507131731 49 254 8.0 14.0 0.00 0.00 0.00 71 1013.4
20260507131231 49 200 8.0 14.0 0.00 0.00 0.00 71 1013.5
20260507130737 49 232 8.0 15.0 0.00 0.00 0.00 72 1013.5
20260507130249 48 248 9.0 15.0 0.00 0.00 0.00 71 1013.5
20260507125737 48 262 8.0 13.0 0.00 0.00 0.00 72 1013.5
20260507125236 47 211 7.0 13.0 0.00 0.00 0.00 73 1013.5
20260507124730 47 238 7.0 11.0 0.00 0.00 0.00 73 1013.5
20260507124444 46 230 7.0 11.0 0.00 0.00 0.00 73 1013.5
20260507123718 46 216 6.0 12.0 0.00 0.00 0.00 73 1013.5
20260507123212 46 244 7.0 12.0 0.00 0.00 0.00 73 1013.5
20260507122930 45 219 6.0 12.0 0.00 0.00 0.00 73 1013.4
20260507122200 45 246 6.0 12.0 0.00 0.00 0.00 72 1013.4
20260507121921 45 229 6.0 12.0 0.00 0.00 0.00 73 1013.4
20260507121148 45 238 6.0 11.0 0.00 0.00 0.00 73 1013.4
20260507120642 44 217 5.0 11.0 0.00 0.00 0.00 73 1013.3
20260507120136 44 212 5.0 10.0 0.00 0.00 0.00 72 1013.4
20260507115848 44 223 5.0 10.0 0.00 0.00 0.00 72 1013.2
20260507115124 44 211 5.0 11.0 0.00 0.00 0.00 72 1013.2
20260507114618 44 227 5.0 11.0 0.00 0.00 0.00 71 1013.2
20260507114112 44 238 5.0 11.0 0.00 0.00 0.00 71 1013.2
20260507113606 44 203 5.0 9.0 0.00 0.00 0.00 70 1013.1
20260507113323 44 199 4.0 10.0 0.00 0.00 0.00 70 1013.1
20260507112554 44 202 4.0 10.0 0.00 0.00 0.00 69 1013.2
20260507112048 44 196 4.0 9.0 0.00 0.00 0.00 69 1013.2
20260507111542 44 223 4.0 9.0 0.00 0.00 0.00 68 1013.2
20260507111036 44 237 4.0 9.0 0.00 0.00 0.00 68 1013.3
20260507110749 44 234 3.0 9.0 0.00 0.00 0.00 67 1013.2
20260507110024 44 205 4.0 7.0 0.00 0.00 0.00 67 1013.2
20260507105518 44 184 4.0 7.0 0.00 0.00 0.00 67 1013.2
20260507105012 44 235 3.0 7.0 0.00 0.00 0.00 67 1013.2
20260507104506 43 189 4.0 7.0 0.00 0.00 0.00 68 1013.2
20260507104000 43 197 4.0 7.0 0.00 0.00 0.00 68 1013.2
20260507103454 43 195 3.0 9.0 0.00 0.00 0.00 68 1013.3
20260507102950 44 204 4.0 10.0 0.00 0.00 0.00 68 1013.3
20260507102442 44 178 4.0 10.0 0.00 0.00 0.00 68 1013.3
20260507102157 43 172 5.0 9.0 0.00 0.00 0.00 67 1013.4
20260507101430 43 174 4.0 9.0 0.00 0.00 0.00 67 1013.5
20260507100924 43 173 3.0 7.0 0.00 0.00 0.00 67 1013.7
20260507100637 43 214 3.0 5.0 0.00 0.00 0.00 67 1013.8
20260507100132 43 233 3.0 8.0 0.00 0.00 0.00 67 1013.8
20260507095407 43 200 3.0 10.0 0.00 0.00 0.00 66 1013.8
20260507094901 43 181 4.0 10.0 0.00 0.00 0.00 66 1013.8
20260507094354 43 179 3.0 7.0 0.00 0.00 0.00 66 1013.7
20260507093849 43 208 2.0 6.0 0.00 0.00 0.00 66 1013.8
20260507093342 43 197 3.0 7.0 0.00 0.00 0.00 66 1013.8
20260507092836 43 177 3.0 7.0 0.00 0.00 0.00 66 1013.9
20260507092330 43 197 3.0 6.0 0.00 0.00 0.00 66 1013.9
20260507091837 43 177 3.0 6.0 0.00 0.00 0.00 66 1013.8
20260507091318 43 173 4.0 6.0 0.00 0.00 0.00 66 1013.8
20260507090818 43 172 3.0 6.0 0.00 0.00 0.00 66 1013.9
20260507090543 43 169 2.0 6.0 0.00 0.00 0.00 66 1013.9
20260507085817 43 178 2.0 4.0 0.00 0.00 0.00 65 1013.9
20260507085317 44 178 2.0 5.0 0.00 0.00 0.00 65 1014.0
20260507084817 44 178 3.0 5.0 0.00 0.00 0.00 65 1014.0
20260507084315 44 184 3.0 5.0 0.00 0.00 0.00 64 1014.0
20260507083813 44 188 3.0 5.0 0.00 0.00 0.00 64 1014.1
20260507083313 44 178 3.0 5.0 0.00 0.00 0.00 63 1014.1
20260507082813 44 183 2.0 4.0 0.00 0.00 0.00 62 1014.2
20260507082318 44 182 2.0 4.0 0.00 0.00 0.00 62 1014.2
20260507081812 44 182 3.0 4.0 0.00 0.00 0.00 62 1014.3
20260507081538 45 184 2.0 4.0 0.00 0.00 0.00 61 1014.3
20260507080812 45 185 2.0 4.0 0.00 0.00 0.00 61 1014.3
20260507080310 45 188 3.0 5.0 0.00 0.00 0.00 60 1014.3
20260507075811 45 189 3.0 5.0 0.00 0.00 0.00 60 1014.3
20260507075307 45 188 3.0 5.0 0.00 0.00 0.00 60 1014.3
20260507074806 45 189 3.0 4.0 0.00 0.00 0.00 60 1014.3
20260507074308 45 188 3.0 5.0 0.00 0.00 0.00 60 1014.4
20260507073807 45 188 3.0 5.0 0.00 0.00 0.00 59 1014.4
20260507073306 46 187 3.0 5.0 0.00 0.00 0.00 59 1014.5
20260507072808 46 190 3.0 5.0 0.00 0.00 0.00 59 1014.5
20260507072308 46 192 3.0 6.0 0.00 0.00 0.00 58 1014.4
20260507072037 46 189 3.0 6.0 0.00 0.00 0.00 58 1014.5
20260507071528 46 190 3.0 6.0 0.00 0.00 0.00 58 1014.5
20260507070806 46 182 3.0 4.0 0.00 0.00 0.00 58 1014.6
20260507070307 46 181 3.0 6.0 0.00 0.00 0.00 58 1014.6
20260507065806 46 178 3.0 6.0 0.00 0.00 0.00 58 1014.7
20260507065307 46 190 3.0 6.0 0.00 0.00 0.00 58 1014.8
20260507064807 46 201 3.0 6.0 0.00 0.00 0.00 58 1014.9
20260507064308 46 199 3.0 7.0 0.00 0.00 0.00 58 1014.8
20260507063806 46 200 3.0 7.0 0.00 0.00 0.00 58 1014.8
20260507063307 46 192 3.0 6.0 0.00 0.00 0.00 59 1014.9
20260507062804 46 196 3.0 6.0 0.00 0.00 0.00 60 1014.9
20260507062257 45 197 3.0 6.0 0.00 0.00 0.00 61 1015.0
20260507061753 44 198 3.0 6.0 0.00 0.00 0.00 63 1015.0
20260507061246 44 216 3.0 5.0 0.00 0.00 0.00 67 1015.0
20260507060741 44 227 2.0 4.0 0.00 0.00 0.00 68 1015.0
20260507060715 44 236 1.0 4.0 0.00 0.00 0.00 71 1015.1
20260507055728 44 322 0.0 1.0 0.00 0.00 0.00 76 1015.1
20260507055223 44 322 0.0 0.0 0.00 0.00 0.00 76 1015.1
20260507054716 44 322 0.0 0.0 0.00 0.00 0.00 75 1015.1
20260507054210 44 321 0.0 2.0 0.00 0.00 0.00 74 1015.2
20260507053704 44 321 0.0 2.0 0.00 0.00 0.00 72 1015.2
20260507053158 44 321 0.0 0.0 0.00 0.00 0.00 71 1015.3
20260507052922 44 321 0.0 0.0 0.00 0.00 0.00 71 1015.3
20260507052403 44 321 0.0 0.0 0.00 0.00 0.00 69 1015.3
20260507051641 44 322 0.0 0.0 0.00 0.00 0.00 68 1015.3
20260507051405 44 317 0.0 0.0 0.00 0.00 0.00 68 1015.2
20260507050628 44 315 0.0 1.0 0.00 0.00 0.00 68 1015.2
20260507050341 44 315 0.0 1.0 0.00 0.00 0.00 68 1015.2
20260507045616 44 310 0.0 0.0 0.00 0.00 0.00 68 1015.3
20260507045109 44 309 0.0 1.0 0.00 0.00 0.00 66 1015.3
20260507044834 44 303 0.0 1.0 0.00 0.00 0.00 67 1015.2
20260507044325 44 302 0.0 0.0 0.00 0.00 0.00 66 1015.2
20260507043550 44 325 0.0 1.0 0.00 0.00 0.00 65 1015.3
20260507043045 44 323 0.0 2.0 0.00 0.00 0.00 65 1015.3
20260507042539 44 323 0.0 2.0 0.00 0.00 0.00 65 1015.2
20260507042033 44 323 0.0 1.0 0.00 0.00 0.00 65 1015.3
20260507041528 44 325 0.0 0.0 0.00 0.00 0.00 64 1015.3
20260507041021 44 325 0.0 0.0 0.00 0.00 0.00 63 1015.3
20260507040515 45 325 0.0 0.0 0.00 0.00 0.00 61 1015.3
20260507040009 45 325 0.0 0.0 0.00 0.00 0.00 62 1015.2
20260507035730 45 325 0.0 0.0 0.00 0.00 0.00 60 1015.2
20260507034959 45 325 0.0 0.0 0.00 0.00 0.00 59 1015.2
20260507034451 46 325 0.0 0.0 0.00 0.00 0.00 58 1015.2
20260507033945 46 325 0.0 0.0 0.00 0.00 0.00 57 1015.3
20260507033439 46 325 0.0 0.0 0.00 0.00 0.00 56 1015.4
20260507032935 46 325 0.0 0.0 0.00 0.00 0.00 56 1015.3
20260507032427 46 324 0.0 0.0 0.00 0.00 0.00 55 1015.4
20260507031921 46 316 0.0 0.0 0.00 0.00 0.00 56 1015.4
20260507031415 47 325 0.0 0.0 0.00 0.00 0.00 55 1015.4
20260507030908 47 320 0.0 0.0 0.00 0.00 0.00 55 1015.4
20260507030402 47 323 0.0 0.0 0.00 0.00 0.00 51 1015.4
20260507025856 47 310 0.0 0.0 0.00 0.00 0.00 50 1015.3
20260507025351 47 325 0.0 0.0 0.00 0.00 0.00 50 1015.4
20260507024847 47 326 0.0 0.0 0.00 0.00 0.00 50 1015.3
20260507024346 48 326 0.0 0.0 0.00 0.00 0.00 51 1015.3
20260507023849 48 326 0.0 0.0 0.00 0.00 0.00 50 1015.3
20260507023349 48 326 0.0 0.0 0.00 0.00 0.00 50 1015.3
20260507022845 49 326 0.0 0.0 0.00 0.00 0.00 48 1015.3
20260507022345 49 326 0.0 0.0 0.00 0.00 0.00 48 1015.2
20260507021847 49 326 0.0 0.0 0.00 0.00 0.00 48 1015.1
20260507021342 49 326 0.0 0.0 0.00 0.00 0.00 48 1015.0
20260507021328 50 326 0.0 0.0 0.00 0.00 0.00 46 1015.0
20260507020337 50 326 0.0 0.0 0.00 0.00 0.00 45 1014.9
20260507015837 50 326 0.0 0.0 0.00 0.00 0.00 45 1014.9
20260507015337 51 326 0.0 0.0 0.00 0.00 0.00 44 1014.7
20260507014835 51 326 0.0 0.0 0.00 0.00 0.00 44 1014.7
20260507014555 51 326 0.0 0.0 0.00 0.00 0.00 44 1014.7
20260507014057 52 326 0.0 0.0 0.00 0.00 0.00 43 1014.7
20260507013333 52 326 0.0 1.0 0.00 0.00 0.00 43 1014.7
20260507012833 52 326 0.0 2.0 0.00 0.00 0.00 43 1014.7
20260507012338 52 326 1.0 2.0 0.00 0.00 0.00 42 1014.6
20260507011838 53 326 0.0 2.0 0.00 0.00 0.00 41 1014.6
20260507011332 53 326 1.0 2.0 0.00 0.00 0.00 41 1014.7
20260507010829 53 326 1.0 4.0 0.00 0.00 0.00 41 1014.6
20260507010537 54 327 1.0 4.0 0.00 0.00 0.00 40 1014.6
20260507005814 54 327 2.0 3.0 0.00 0.00 0.00 40 1014.6
20260507005308 54 327 2.0 6.0 0.00 0.00 0.00 40 1014.6
20260507005025 55 327 2.0 6.0 0.00 0.00 0.00 40 1014.7
20260507004256 55 326 3.0 8.0 0.00 0.00 0.00 40 1014.7
20260507003751 55 327 4.0 9.0 0.00 0.00 0.00 40 1014.6
20260507003251 56 328 4.0 9.0 0.00 0.00 0.00 40 1014.6
20260507002751 56 286 5.0 11.0 0.00 0.00 0.00 39 1014.6
20260507002249 56 327 6.0 11.0 0.00 0.00 0.00 39 1014.5
20260507001749 57 330 5.0 11.0 0.00 0.00 0.00 38 1014.5
20260507001248 57 319 4.0 8.0 0.00 0.00 0.00 40 1014.5
20260507000748 57 309 3.0 6.0 0.00 0.00 0.00 38 1014.4
20260507000247 57 315 3.0 9.0 0.00 0.00 0.00 40 1014.4
20260506235747 57 323 4.0 10.0 0.00 0.00 0.00 39 1014.4
20260506235247 57 44 6.0 13.0 0.00 0.00 0.00 38 1014.4
20260506234744 57 321 6.0 13.0 0.00 0.00 0.00 38 1014.4
20260506234246 57 348 6.0 13.0 0.00 0.00 0.00 40 1014.4
20260506233744 57 286 8.0 14.0 0.00 0.00 0.00 37 1014.5
20260506233245 57 300 8.0 14.0 0.00 0.00 0.00 37 1014.5
20260506232746 58 319 8.0 13.0 0.00 0.00 0.00 37 1014.5
20260506232245 58 307 7.0 14.0 0.00 0.00 0.00 37 1014.6
20260506231745 58 326 7.0 14.0 0.00 0.00 0.00 38 1014.6
20260506231515 58 317 8.0 13.0 0.00 0.00 0.00 37 1014.6
20260506230745 58 308 7.0 12.0 0.00 0.00 0.00 37 1014.7